Flag for U.S.A. Weather past 2 weeks in Lynchburg, Virginia, U.S.A.

Now
59 °F

Passing clouds.


Feels Like: 58 °F
Forecast: 43 / 66 °F
Wind: 6 mph from Southwest

Location: Lynchburg Regional Airport

Current Time: Oct 26, 2014 at 4:08:29 AM

Latest Report: Oct 26, 2014 at 2:54 AM


Visibility: 10 mi

Pressure: 29.80 "Hg

Humidity: 72%

Dew point: 50 °F

Location of LynchburgLocation

Historic Weather in Lynchburg — Graph

°F

Lynchburg temperature yesterday

Maximum temperature yesterday: 69 °F (at 2:54 PM)
Minimum temperature yesterday: 35 °F (at 7:54 AM)
Average temperature yesterday: 54 °F

Past Weeks' High & Low Weather Summary

 TemperatureHumidityPressure
High73 °F (Oct 14, 5:54 PM)100% (Oct 11, 2:54 AM)30.29 "Hg (Oct 11, 2:54 AM)
Low35 °F (Oct 20, 5:54 AM)34% (Oct 19, 3:54 PM)29.71 "Hg (Oct 18, 3:54 AM)
Average56 °F79%29.98 "Hg
* Reported Oct 11 2:54 AM — Oct 26 2:54 AM, Lynchburg, Weather by CustomWeather, © 2014

Note: Actual official high and low records may vary slightly from our data, if they occured in-between our weather recording intervals... More about our weather records

Advertising

Lynchburg weather history for previous 24 hours

 ConditionsComfort  
Time TempWeatherWind HumidityBarometerVisibility
2:54 AM
Oct 26
59 °FPassing clouds.6 mph72%29.80 "Hg10 mi
1:54 AM59 °FClear.5 mph72%29.81 "Hg10 mi
12:54 AM59 °FClear.6 mph69%29.81 "Hg10 mi
11:54 PM
Oct 25
56 °FClear.7 mph75%29.82 "Hg10 mi
10:54 PM61 °FClear.9 mph60%29.83 "Hg10 mi
9:54 PM61 °FClear.6 mph58%29.84 "Hg10 mi
8:54 PM61 °FClear.3 mph54%29.85 "Hg10 mi
7:54 PM63 °FClear.5 mph48%29.86 "Hg10 mi
6:54 PM63 °FSunny.5 mph48%29.85 "Hg10 mi
5:54 PM66 °FSunny.5 mph43%29.87 "Hg10 mi
4:54 PM69 °FSunny.6 mph38%29.87 "Hg10 mi
3:54 PM69 °FSunny.7 mph36%29.88 "Hg10 mi
2:54 PM69 °FSunny.8 mph38%29.90 "Hg10 mi
1:54 PM68 °FSunny.8 mph36%29.93 "Hg10 mi
12:54 PM65 °FSunny.9 mph42%29.98 "Hg10 mi
11:54 AM63 °FSunny.8 mph41%30.01 "Hg10 mi
10:54 AM58 °FSunny.7 mph51%30.03 "Hg10 mi
9:54 AM52 °FSunny.6 mph75%30.04 "Hg10 mi
8:54 AM42 °FSunny.No wind92%30.04 "Hg10 mi
7:54 AM35 °FClear.No wind100%30.02 "Hg10 mi
6:54 AM37 °FClear.No wind93%30.02 "Hg10 mi
5:54 AM38 °FClear.No wind93%30.01 "Hg10 mi
4:54 AM37 °FClear.No wind93%29.99 "Hg10 mi
Weather by CustomWeather, © 2014

See weather overviewHow to use our weather pages